Location: Carthage
(33.8834°N, 106.6595°W)
Time: 19:38:27
(UTC+00:00)

Cosmos 1898 Rocket - Visible Passes

Search period start: 18 May 2026 00:00
Search period end: 28 May 2026 00:00
Orbit: 750 x 778 km, 74.0° (Epoch: 18 May)

Date Brightness Start Highest point End Pass type
(mag) Time Alt. Az. Time Alt. Az. Time Alt. Az.
18 May 5.0 06:07:22 10° NNW 06:10:09 33° NNW 06:10:09 33° NNW visible
19 May 4.7 05:29:13 10° N 05:32:34 36° NNE 05:32:34 36° NNE visible
20 May 5.0 04:51:25 10° N 04:55:00 26° NE 04:55:00 26° NE visible
20 May 5.6 06:33:15 10° NW 06:35:10 20° WNW 06:35:10 20° WNW visible
21 May 5.4 04:14:13 10° NNE 04:17:15 15° ENE 04:17:27 15° ENE visible
21 May 4.8 05:54:27 10° NNW 05:57:38 35° NW 05:57:38 35° NW visible
22 May 4.0 05:16:04 10° NNW 05:20:07 55° N 05:20:07 55° N visible
23 May 4.1 04:37:59 10° N 04:42:38 42° ENE 04:42:38 42° ENE visible
23 May 5.8 06:21:04 10° NW 06:22:48 16° WNW 06:22:48 16° WNW visible
24 May 4.8 04:00:18 10° NNE 04:04:28 24° ENE 04:05:10 23° ENE visible
24 May 4.9 05:41:46 10° NW 05:45:21 30° WNW 05:45:21 30° WNW visible
25 May 5.5 03:23:22 10° NNE 03:25:52 13° ENE 03:27:44 11° E visible
25 May 3.8 05:03:05 10° NNW 05:07:55 62° W 05:07:55 62° W visible
26 May 3.4 04:24:46 10° NNW 04:29:59 69° ENE 04:30:31 64° ESE visible
26 May 6.1 06:10:17 10° W 06:10:43 10° W 06:10:43 10° W visible
27 May 4.2 03:46:46 10° N 03:51:36 37° ENE 03:53:10 30° ESE visible
27 May 5.4 05:29:26 10° NW 05:33:15 21° W 05:33:21 21° W visible
